San Diego Montgomery, CA

3:46 AM PDT on May 29, 2017 (GMT -0700)
Montgomery

Weather History for KMYF - January, 2014

Change the Weather History Date:

Saturday, January 4, 2014

  Actual Average Record
Temperature  
Mean Temperature 58 °F 55 °F  
Max Temperature 69 °F 66 °F 82 °F (2012)
Min Temperature 48 °F 44 °F 39 °F (2000)
Degree Days  
Heating Degree Days 6 10  
Month to date heating degree days 40  
Since 1 July heating degree days 547  
Cooling Degree Days 0 0  
Month to date cooling degree days 0  
Year to date cooling degree days 0  
Growing Degree Days 8 (Base 50)    
Moisture  
Dew Point 46 °F    
Average Humidity 73    
Maximum Humidity 94    
Minimum Humidity 25    
Precipitation  
Precipitation 0.00 in 0.11 in 0.47 in (2005)
Month to date precipitation 0.46  
Year to date precipitation 0.46  
Sea Level Pressure  
Sea Level Pressure 29.98 in    
Wind  
Wind Speed 2 mph (South)    
Max Wind Speed 8 mph    
Max Gust Speed -    
Visibility 6 miles    
Events      
T = Trace of Precipitation, MM = Missing Value Source: NWS Daily Summary

Daily Weather History Graph

Daily Weather History Graph

Search for Another Location

Airport or City:

Trip Planner

Search our weather history database for the weather conditions in past years. The results will help you decide how hot, cold, wet, or windy it might be!

Date:

Astronomy

Jan. 04, 2014 Rise Set
Actual Time 6:51 AM PST 4:55 PM PST
Civil Twilight 6:24 AM PST 5:22 PM PST
Nautical Twilight 5:53 AM PST 5:53 PM PST
Astronomical Twilight 5:23 AM PST 6:23 PM PST
Moon 9:13 AM PST (1/4) 9:05 PM PST (1/4)
Length of Visible Light 10h 58m
Length of Day
10h 04m
Waxing Crescent, 16% of the Moon is Illuminated
Jan 4
Waxing Crescent
Jan 7
First Quarter
Jan 15
Full
Jan 23
Last Quarter
Jan 30
New

Hourly Weather History & Observations

Time (PST) Temp. Dew Point Humidity Pressure Visibility Wind Dir Wind Speed Gust Speed Precip Events Conditions
12:53 AM 52.0 °F 45.0 °F 77% 29.96 in 6.0 mi SE 3.5 mph - N/A   Haze
1:53 AM 53.1 °F 45.0 °F 74% 29.96 in 6.0 mi Calm Calm - N/A   Haze
2:53 AM 54.0 °F 45.0 °F 72% 29.96 in 6.0 mi Calm Calm - N/A   Haze
3:53 AM 53.1 °F 44.1 °F 71% 29.96 in 6.0 mi Calm Calm - N/A   Haze
4:53 AM 52.0 °F 44.1 °F 74% 29.96 in 5.0 mi Calm Calm - N/A   Haze
5:06 AM 51.8 °F 42.8 °F 71% 29.96 in 7.0 mi ENE 3.5 mph - N/A   Mostly Cloudy
5:18 AM 51.8 °F 42.8 °F 71% 29.96 in 10.0 mi Calm Calm - N/A   Scattered Clouds
5:53 AM 51.1 °F 42.1 °F 71% 29.96 in 10.0 mi Calm Calm - N/A   Clear
6:53 AM 51.1 °F 41.0 °F 68% 29.96 in 6.0 mi Calm Calm - N/A   Haze
7:53 AM 52.0 °F 42.1 °F 69% 29.98 in 6.0 mi East 3.5 mph - N/A   Haze
8:53 AM 57.0 °F 43.0 °F 59% 30.00 in 9.0 mi Calm Calm - N/A   Clear
9:53 AM 61.0 °F 41.0 °F 48% 30.01 in 7.0 mi SSE 3.5 mph - N/A   Clear
10:53 AM 66.0 °F 39.0 °F 37% 29.99 in 7.0 mi SSE 4.6 mph - N/A   Clear
11:53 AM 69.1 °F 32.0 °F 25% 29.96 in 9.0 mi South 5.8 mph - N/A   Clear
12:53 PM 64.9 °F 51.1 °F 61% 29.94 in 7.0 mi WSW 8.1 mph - N/A   Clear
1:53 PM 63.0 °F 51.1 °F 65% 29.93 in 8.0 mi WSW 5.8 mph - N/A   Clear
2:53 PM 64.0 °F 52.0 °F 65% 29.94 in 9.0 mi West 4.6 mph - N/A   Clear
3:53 PM 62.1 °F 51.1 °F 67% 29.95 in 9.0 mi SW 4.6 mph - N/A   Clear
4:53 PM 59.0 °F 52.0 °F 78% 29.96 in 9.0 mi Calm Calm - N/A   Clear
5:53 PM 57.0 °F 52.0 °F 83% 29.98 in 10.0 mi Calm Calm - N/A   Clear
6:53 PM 55.9 °F 52.0 °F 87% 30.00 in 7.0 mi Calm Calm - N/A   Clear
7:53 PM 52.0 °F 50.0 °F 93% 30.01 in 4.0 mi Calm Calm - N/A   Clear
8:53 PM 53.1 °F 50.0 °F 89% 30.01 in 4.0 mi Calm Calm - N/A   Clear
9:53 PM 51.1 °F 48.0 °F 89% 30.02 in 4.0 mi Calm Calm - N/A   Clear
10:53 PM 51.1 °F 48.0 °F 89% 30.02 in 3.0 mi North 3.5 mph - N/A   Clear
11:12 PM 51.8 °F 48.2 °F 88% 30.03 in 2.5 mi Calm Calm - N/A   Clear
11:32 PM 50.0 °F 48.2 °F 94% 30.03 in 3.0 mi Calm Calm - N/A   Clear
11:53 PM 48.9 °F 46.9 °F 93% 30.02 in 2.5 mi Calm Calm - N/A   Clear
11:55 PM 48.2 °F 46.4 °F 93% 30.03 in 1.8 mi Calm Calm - N/A   Partly Cloudy